Weather History for Moffett NAS, CA

Change the Weather History Date:

Thursday, January 26, 2012

  Actual Average Record
Temperature  
Mean Temperature 58 °F 51 °F  
Max Temperature 64 °F 59 °F 70 °F (2014)
Min Temperature 51 °F 43 °F 25 °F (1949)
Degree Days  
Heating Degree Days 7    
Month to date heating degree days 345  
Since 1 July heating degree days 1028  
Cooling Degree Days 0    
Month to date cooling degree days 0  
Year to date cooling degree days 0  
Growing Degree Days 6 (Base 50)    
Moisture  
Dew Point 54 °F    
Average Humidity 86    
Maximum Humidity 100    
Minimum Humidity 72    
Precipitation  
Precipitation 0.00 in 0.08 in 1.58 in (1983)
Month to date precipitation 1.03 2.32  
Year to date precipitation 1.03 2.32  
Since 1 July precipitation 2.80 7.37  
Sea Level Pressure  
Sea Level Pressure 30.32 in    
Wind  
Wind Speed 4 mph (NNW)    
Max Wind Speed 16 mph    
Max Gust Speed 20 mph    
Visibility 8 miles    
Events Fog    
T = Trace of Precipitation, MM = Missing Value Source: NWS Daily Summary

Daily Weather History Graph

Daily Weather History Graph

Search for Another Location

Airport:

Trip Planner

Search our weather history database for the weather conditions in past years. The results will help you decide how hot, cold, wet, or windy it might be!

Date:

Astronomy

Jan. 26, 2012 Rise Set
Actual Time 7:16 AM PST 5:25 PM PST
Civil Twilight 6:48 AM PST 5:53 PM PST
Nautical Twilight 6:16 AM PST 6:24 PM PST
Astronomical Twilight 5:45 AM PST 6:55 PM PST
Moon 8:51 AM PST (1/26) 9:17 PM PST (1/26)
Length of Visible Light 11h 05m
Length of Day
10h 09m
Waxing Crescent, 13% of the Moon is Illuminated
Jan 26
Waxing Crescent
Jan 30
First Quarter
Feb 7
Full
Feb 14
Last Quarter
Feb 21
New

Hourly Weather History & Observations

Time (PST) Temp. Dew Point Humidity Pressure Visibility Wind Dir Wind Speed Gust Speed Precip Events Conditions
12:56 AM 55.0 °F 53.1 °F 93% 30.37 in 10.0 mi Calm Calm - N/A   Overcast
1:13 AM 55.4 °F 53.6 °F 94% 30.36 in 10.0 mi Calm Calm - N/A   Overcast
1:56 AM 55.9 °F 54.0 °F 93% 30.36 in 10.0 mi Calm Calm - N/A   Overcast
2:56 AM 55.9 °F 54.0 °F 93% 30.36 in 10.0 mi Calm Calm - N/A   Overcast
3:39 AM 55.4 °F 53.6 °F 94% 30.35 in 10.0 mi Calm Calm - N/A   Overcast
3:56 AM 55.9 °F 53.1 °F 90% 30.35 in 9.0 mi Calm Calm - N/A   Overcast
4:56 AM 55.0 °F 54.0 °F 96% 30.34 in 2.5 mi Calm Calm - N/A   Overcast
5:09 AM 55.4 °F 53.6 °F 94% 30.34 in 4.0 mi Calm Calm - N/A   Overcast
5:47 AM 55.4 °F 55.4 °F 100% 30.35 in 5.0 mi Calm Calm - N/A   Overcast
6:56 AM 55.0 °F 54.0 °F 96% 30.35 in 4.0 mi Calm Calm - N/A   Overcast
7:40 AM 55.4 °F 55.4 °F 100% 30.35 in 6.0 mi Calm Calm - N/A   Overcast
7:56 AM 55.9 °F 55.0 °F 97% 30.36 in 6.0 mi Calm Calm - N/A   Mostly Cloudy
8:10 AM 55.4 °F 55.4 °F 100% 30.35 in 7.0 mi Calm Calm - N/A   Scattered Clouds
8:36 AM 57.2 °F 55.4 °F 94% 30.35 in 8.0 mi SSE 3.5 mph - N/A   Mostly Cloudy
8:56 AM 57.0 °F 55.0 °F 93% 30.36 in 10.0 mi Calm Calm - N/A   Overcast
9:13 AM 57.2 °F 55.4 °F 94% 30.35 in 10.0 mi Calm Calm - N/A   Overcast
9:51 AM 59.0 °F 55.4 °F 88% 30.36 in 10.0 mi Calm Calm - N/A   Overcast
9:56 AM 60.1 °F 55.0 °F 83% 30.37 in 10.0 mi Calm Calm - N/A   Overcast
10:34 AM 62.6 °F 55.4 °F 77% 30.37 in 10.0 mi NNE 4.6 mph - N/A   Mostly Cloudy
10:56 AM 62.1 °F 55.0 °F 78% 30.38 in 10.0 mi NE 4.6 mph - N/A   Overcast
11:03 AM 60.8 °F 55.4 °F 82% 30.36 in 10.0 mi North 5.8 mph - N/A   Overcast
11:10 AM 60.8 °F 55.4 °F 82% 30.36 in 10.0 mi North 4.6 mph - N/A   Mostly Cloudy
11:20 AM 62.6 °F 55.4 °F 77% 30.36 in 10.0 mi North 8.1 mph - N/A   Mostly Cloudy
11:43 AM 60.8 °F 55.4 °F 82% 30.35 in 10.0 mi North 5.8 mph - N/A   Overcast
11:56 AM 61.0 °F 55.0 °F 81% 30.35 in 10.0 mi NNW 4.6 mph - N/A   Overcast
12:31 PM 62.6 °F 55.4 °F 77% 30.32 in 10.0 mi NNW 5.8 mph - N/A   Mostly Cloudy
12:56 PM 62.1 °F 55.0 °F 78% 30.31 in 10.0 mi North 5.8 mph - N/A   Partly Cloudy
1:35 PM 62.6 °F 55.4 °F 77% 30.29 in 10.0 mi North 8.1 mph - N/A   Mostly Cloudy
1:56 PM 62.1 °F 54.0 °F 75% 30.29 in 10.0 mi North 6.9 mph - N/A   Mostly Cloudy
2:03 PM 62.6 °F 55.4 °F 77% 30.27 in 10.0 mi NNW 6.9 mph - N/A   Mostly Cloudy
2:22 PM 60.8 °F 53.6 °F 77% 30.28 in 10.0 mi North 9.2 mph - N/A   Mostly Cloudy
2:56 PM 60.1 °F 53.1 °F 78% 30.27 in 10.0 mi North 12.7 mph - N/A   Mostly Cloudy
3:51 PM 59.0 °F 53.6 °F 82% 30.25 in 10.0 mi North 12.7 mph - N/A   Mostly Cloudy
3:56 PM 60.1 °F 53.1 °F 78% 30.27 in 10.0 mi North 15.0 mph - N/A   Mostly Cloudy
4:51 PM 57.2 °F 51.8 °F 82% 30.26 in 10.0 mi NNW 6.9 mph - N/A   Mostly Cloudy
4:56 PM 57.0 °F 52.0 °F 83% 30.27 in 10.0 mi NNW 6.9 mph - N/A   Mostly Cloudy
5:56 PM 55.0 °F 52.0 °F 89% 30.28 in 10.0 mi North 8.1 mph - N/A   Scattered Clouds
6:56 PM 54.0 °F 52.0 °F 93% 30.28 in 10.0 mi Calm Calm - N/A   Clear
7:56 PM 54.0 °F 52.0 °F 93% 30.29 in 9.0 mi NNW 5.8 mph - N/A   Partly Cloudy
8:09 PM 53.6 °F 51.8 °F 94% 30.28 in 10.0 mi NNW 5.8 mph - N/A   Mostly Cloudy
8:20 PM 53.6 °F 51.8 °F 94% 30.28 in 10.0 mi NNW 4.6 mph - N/A   Scattered Clouds
8:30 PM 53.6 °F 51.8 °F 94% 30.28 in 8.0 mi NW 4.6 mph - N/A   Mostly Cloudy
8:56 PM 53.1 °F 52.0 °F 96% 30.29 in 6.0 mi NW 5.8 mph - N/A   Overcast
9:56 PM 53.1 °F 51.1 °F 93% 30.29 in 8.0 mi West 4.6 mph - N/A   Overcast
10:56 PM 52.0 °F 51.1 °F 97% 30.28 in 5.0 mi NW 3.5 mph - N/A   Overcast
11:15 PM 51.8 °F 50.0 °F 94% 30.28 in 1.5 mi North 4.6 mph - N/A   Overcast
11:18 PM 51.8 °F 50.0 °F 94% 30.28 in 0.8 mi North 3.5 mph - N/A   Overcast
11:30 PM 51.8 °F 51.8 °F 100% 30.28 in 0.2 mi North 3.5 mph - N/A Fog Fog
11:56 PM 51.1 °F 51.1 °F 100% 30.28 in 0.2 mi North 3.5 mph - N/A Fog Fog